Weather History for KPHP - November, 2013

Change the Weather History Date:

Friday, November 8, 2013

  Actual Average Record
Temperature  
Mean Temperature 45 °F 38 °F  
Max Temperature 57 °F 51 °F 84 °F (1999)
Min Temperature 33 °F 24 °F 5 °F (1991)
Degree Days  
Heating Degree Days 20 27  
Month to date heating degree days 214 204  
Since 1 July heating degree days 797 907  
Cooling Degree Days 0 0  
Month to date cooling degree days 0 0  
Year to date cooling degree days 945 818  
Moisture  
Dew Point 31 °F    
Average Humidity 60    
Maximum Humidity 82    
Minimum Humidity 38    
Precipitation  
Precipitation 0.00 in 0.03 in 0.60 in (1983)
Month to date precipitation 0.39 0.22  
Year to date precipitation 15.25 16.52  
Sea Level Pressure  
Sea Level Pressure 29.76 in    
Wind  
Wind Speed 11 mph (WNW)    
Max Wind Speed 43 mph    
Max Gust Speed 54 mph    
Visibility 10 miles    
Events      
T = Trace of Precipitation, MM = Missing Value Source: NWS Daily Summary

Daily Weather History Graph

Daily Weather History Graph

Search for Another Location

Airport or City:

Trip Planner

Search our weather history database for the weather conditions in past years. The results will help you decide how hot, cold, wet, or windy it might be!

Date:

Astronomy

Nov. 08, 2013 Rise Set
Actual Time 6:32 AM MST 4:27 PM MST
Civil Twilight 6:01 AM MST 4:57 PM MST
Nautical Twilight 5:27 AM MST 5:32 PM MST
Astronomical Twilight 4:53 AM MST 6:06 PM MST
Moon 11:29 AM MST (11/8) 9:51 PM MST (11/8)
Length of Visible Light 10h 55m
Length of Day
9h 54m
Waxing Crescent, 34% of the Moon is Illuminated
Nov 8
Waxing Crescent
Nov 9
First Quarter
Nov 17
Full
Nov 25
Last Quarter
Dec 2
New

Hourly Weather History & Observations

Time (MST) Temp. Windchill Dew Point Humidity Pressure Visibility Wind Dir Wind Speed Gust Speed Precip Events Conditions
12:55 AM 35.1 °F 30.1 °F 28.9 °F 78% 29.82 in 10.0 mi East 5.8 mph - N/A   Clear
1:55 AM 37.9 °F 34.4 °F 30.0 °F 73% 29.75 in 10.0 mi SE 4.6 mph - N/A   Clear
2:55 AM 39.9 °F 37.8 °F 30.0 °F 68% 29.70 in 10.0 mi Variable 3.5 mph - N/A   Clear
3:55 AM 41.0 °F 36.4 °F 30.0 °F 65% 29.66 in 10.0 mi SW 6.9 mph - N/A   Clear
4:55 AM 43.0 °F - 30.0 °F 60% 29.64 in 10.0 mi Calm Calm - N/A   Scattered Clouds
5:55 AM 39.9 °F - 30.9 °F 70% 29.61 in 10.0 mi Calm Calm - N/A   Mostly Cloudy
6:55 AM 39.9 °F 35.8 °F 30.0 °F 68% 29.60 in 10.0 mi WNW 5.8 mph - N/A   Clear
7:55 AM 46.9 °F - 32.0 °F 56% 29.61 in 10.0 mi West 11.5 mph 17.3 mph N/A   Clear
8:55 AM 50.0 °F - 35.1 °F 57% 29.66 in 10.0 mi WNW 20.7 mph 29.9 mph N/A   Mostly Cloudy
10:55 AM 48.9 °F - 37.0 °F 64% 29.72 in 10.0 mi WNW 27.6 mph 35.7 mph N/A   Clear
11:55 AM 54.0 °F - 34.0 °F 47% 29.71 in 10.0 mi NW 24.2 mph 38.0 mph N/A   Clear
12:55 PM 55.0 °F - 32.0 °F 42% 29.71 in 10.0 mi WNW 33.4 mph 41.4 mph N/A   Clear
1:55 PM 55.9 °F - 30.0 °F 37% 29.72 in 10.0 mi NW 28.8 mph 43.7 mph N/A   Mostly Cloudy
2:55 PM 53.1 °F - 33.1 °F 47% 29.76 in 10.0 mi NW 15.0 mph - N/A   Clear
3:55 PM 50.0 °F - 30.9 °F 48% 29.77 in 10.0 mi WNW 13.8 mph - N/A   Clear
4:55 PM 46.9 °F - 30.0 °F 52% 29.80 in 10.0 mi West 10.4 mph - N/A   Clear
5:55 PM 46.0 °F 41.0 °F 30.0 °F 54% 29.83 in 10.0 mi West 10.4 mph - N/A   Clear
6:55 PM 43.0 °F 38.2 °F 28.9 °F 58% 29.85 in 10.0 mi SW 8.1 mph - N/A   Clear
7:55 PM 42.1 °F - 28.0 °F 58% 29.86 in 10.0 mi Calm Calm - N/A   Clear
8:55 PM 43.0 °F 36.4 °F 28.9 °F 58% 29.88 in 10.0 mi West 12.7 mph - N/A   Clear
9:55 PM 44.1 °F 38.6 °F 28.9 °F 55% 29.89 in 10.0 mi WNW 10.4 mph - N/A   Clear
10:55 PM 41.0 °F 36.4 °F 28.9 °F 62% 29.94 in 10.0 mi West 6.9 mph - N/A   Clear
11:55 PM 43.0 °F 37.2 °F 28.9 °F 58% 29.96 in 10.0 mi WNW 10.4 mph - N/A   Clear